Year,Month,Day,Hour,Minute,Value (Times are PST for temperature in C)
2015,03,06,00,00,4.10
2015,03,06,00,01,4.10
2015,03,06,00,02,4.00
2015,03,06,00,03,4.00
2015,03,06,00,04,4.00
2015,03,06,00,05,4.00
2015,03,06,00,06,3.90
2015,03,06,00,07,3.90
2015,03,06,00,08,3.90
2015,03,06,00,09,3.90
2015,03,06,00,10,3.90
2015,03,06,00,11,3.90
2015,03,06,00,12,3.90
2015,03,06,00,13,3.80
2015,03,06,00,14,3.80
2015,03,06,00,15,3.80
2015,03,06,00,16,3.80
2015,03,06,00,17,3.80
2015,03,06,00,18,3.80
2015,03,06,00,19,3.80
2015,03,06,00,20,3.80
2015,03,06,00,21,3.80
2015,03,06,00,22,3.70
2015,03,06,00,23,3.70
2015,03,06,00,24,3.70
2015,03,06,00,25,3.70
2015,03,06,00,26,3.70
2015,03,06,00,27,3.70
2015,03,06,00,28,3.70
2015,03,06,00,29,3.70
2015,03,06,00,30,3.70
2015,03,06,00,31,3.60
2015,03,06,00,32,3.60
2015,03,06,00,33,3.60
2015,03,06,00,34,3.60
2015,03,06,00,35,3.60
2015,03,06,00,36,3.60
2015,03,06,00,37,3.60
2015,03,06,00,38,3.60
2015,03,06,00,39,3.60
2015,03,06,00,40,3.60
2015,03,06,00,41,3.50
2015,03,06,00,42,3.50
2015,03,06,00,43,3.50
2015,03,06,00,44,3.50
2015,03,06,00,45,3.50
2015,03,06,00,46,3.40
2015,03,06,00,47,3.40
2015,03,06,00,48,3.40
2015,03,06,00,49,3.40
2015,03,06,00,50,3.40
2015,03,06,00,51,3.40
2015,03,06,00,52,3.40
2015,03,06,00,53,3.30
2015,03,06,00,54,3.30
2015,03,06,00,55,3.30
2015,03,06,00,56,3.30
2015,03,06,00,57,3.30
2015,03,06,00,58,3.30
2015,03,06,00,59,3.20
2015,03,06,01,00,3.20
2015,03,06,01,01,3.20
2015,03,06,01,02,3.20
2015,03,06,01,03,3.20
2015,03,06,01,04,3.20
2015,03,06,01,05,3.10
2015,03,06,01,06,3.10
2015,03,06,01,07,3.10
2015,03,06,01,08,3.10
2015,03,06,01,09,3.10
2015,03,06,01,10,3.10
2015,03,06,01,11,3.00
2015,03,06,01,12,3.00
2015,03,06,01,13,3.00
2015,03,06,01,14,3.00
2015,03,06,01,15,3.00
2015,03,06,01,16,3.00
2015,03,06,01,17,3.00
2015,03,06,01,18,2.90
2015,03,06,01,19,2.90
2015,03,06,01,20,2.90
2015,03,06,01,21,2.90
2015,03,06,01,22,2.90
2015,03,06,01,23,2.90
2015,03,06,01,24,2.90
2015,03,06,01,25,2.90
2015,03,06,01,26,2.90
2015,03,06,01,27,2.90
2015,03,06,01,28,2.80
2015,03,06,01,29,2.80
2015,03,06,01,30,2.80
2015,03,06,01,31,2.80
2015,03,06,01,32,2.80
2015,03,06,01,33,2.80
2015,03,06,01,34,2.80
2015,03,06,01,35,2.80
2015,03,06,01,36,2.80
2015,03,06,01,37,2.80
2015,03,06,01,38,2.80
2015,03,06,01,39,2.80
2015,03,06,01,40,2.80
2015,03,06,01,41,2.80
2015,03,06,01,42,2.70
2015,03,06,01,43,2.70
2015,03,06,01,44,2.70
2015,03,06,01,45,2.70
2015,03,06,01,46,2.70
2015,03,06,01,47,2.70
2015,03,06,01,48,2.70
2015,03,06,01,49,2.70
2015,03,06,01,50,2.70
2015,03,06,01,51,2.70
2015,03,06,01,52,2.70
2015,03,06,01,53,2.70
2015,03,06,01,54,2.70
2015,03,06,01,55,2.70
2015,03,06,01,56,2.70
2015,03,06,01,57,2.70
2015,03,06,01,58,2.70
2015,03,06,01,59,2.70
2015,03,06,02,00,2.70
2015,03,06,02,01,2.70
2015,03,06,02,02,2.60
2015,03,06,02,03,2.60
2015,03,06,02,04,2.60
2015,03,06,02,05,2.60
2015,03,06,02,06,2.60
2015,03,06,02,07,2.60
2015,03,06,02,08,2.60
2015,03,06,02,09,2.50
2015,03,06,02,10,2.50
2015,03,06,02,11,2.50
2015,03,06,02,12,2.40
2015,03,06,02,13,2.40
2015,03,06,02,14,2.40
2015,03,06,02,15,2.40
2015,03,06,02,16,2.30
2015,03,06,02,17,2.30
2015,03,06,02,18,2.30
2015,03,06,02,19,2.30
2015,03,06,02,20,2.30
2015,03,06,02,21,2.30
2015,03,06,02,22,2.30
2015,03,06,02,23,2.30
2015,03,06,02,24,2.30
2015,03,06,02,25,2.20
2015,03,06,02,26,2.20
2015,03,06,02,27,2.20
2015,03,06,02,28,2.20
2015,03,06,02,29,2.20
2015,03,06,02,30,2.20
2015,03,06,02,31,2.20
2015,03,06,02,32,2.20
2015,03,06,02,33,2.20
2015,03,06,02,34,2.20
2015,03,06,02,35,2.10
2015,03,06,02,36,2.10
2015,03,06,02,37,2.10
2015,03,06,02,38,2.10
2015,03,06,02,39,2.10
2015,03,06,02,40,2.10
2015,03,06,02,41,2.10
2015,03,06,02,42,2.10
2015,03,06,02,43,2.10
2015,03,06,02,44,2.10
2015,03,06,02,45,2.10
2015,03,06,02,46,2.10
2015,03,06,02,47,2.10
2015,03,06,02,48,2.10
2015,03,06,02,49,2.10
2015,03,06,02,50,2.10
2015,03,06,02,51,2.10
2015,03,06,02,52,2.10
2015,03,06,02,53,2.10
2015,03,06,02,54,2.10
2015,03,06,02,55,2.10
2015,03,06,02,56,2.10
2015,03,06,02,57,2.10
2015,03,06,02,58,2.10
2015,03,06,02,59,2.10
2015,03,06,03,00,2.10
2015,03,06,03,01,2.10
2015,03,06,03,02,2.10
2015,03,06,03,03,2.10
2015,03,06,03,04,2.10
2015,03,06,03,05,2.10
2015,03,06,03,06,2.10
2015,03,06,03,07,2.10
2015,03,06,03,08,2.10
2015,03,06,03,09,2.10
2015,03,06,03,10,2.10
2015,03,06,03,11,2.00
2015,03,06,03,12,2.00
2015,03,06,03,13,2.00
2015,03,06,03,14,2.00
2015,03,06,03,15,2.00
2015,03,06,03,16,1.90
2015,03,06,03,17,1.90
2015,03,06,03,18,1.90
2015,03,06,03,19,1.90
2015,03,06,03,20,1.90
2015,03,06,03,21,1.90
2015,03,06,03,22,1.90
2015,03,06,03,23,1.90
2015,03,06,03,24,1.90
2015,03,06,03,25,1.90
2015,03,06,03,26,1.90
2015,03,06,03,27,2.00
2015,03,06,03,28,1.90
2015,03,06,03,29,1.90
2015,03,06,03,30,2.00
2015,03,06,03,31,2.00
2015,03,06,03,32,2.00
2015,03,06,03,33,2.00
2015,03,06,03,34,2.00
2015,03,06,03,35,2.10
2015,03,06,03,36,2.10
2015,03,06,03,37,2.10
2015,03,06,03,38,2.10
2015,03,06,03,39,2.10
2015,03,06,03,40,2.10
2015,03,06,03,41,2.10
2015,03,06,03,42,2.10
2015,03,06,03,43,2.10
2015,03,06,03,44,2.10
2015,03,06,03,45,2.20
2015,03,06,03,46,2.20
2015,03,06,03,47,2.20
2015,03,06,03,48,2.20
2015,03,06,03,49,2.20
2015,03,06,03,50,2.20
2015,03,06,03,51,2.20
2015,03,06,03,52,2.20
2015,03,06,03,53,2.20
2015,03,06,03,54,2.20
2015,03,06,03,55,2.20
2015,03,06,03,56,2.20
2015,03,06,03,57,2.20
2015,03,06,03,58,2.20
2015,03,06,03,59,2.20
2015,03,06,04,00,2.20
2015,03,06,04,01,2.10
2015,03,06,04,02,2.10
2015,03,06,04,03,2.10
2015,03,06,04,04,2.00
2015,03,06,04,05,2.00
2015,03,06,04,06,2.00
2015,03,06,04,07,1.90
2015,03,06,04,08,1.90
2015,03,06,04,09,1.90
2015,03,06,04,10,1.90
2015,03,06,04,11,1.90
2015,03,06,04,12,1.90
2015,03,06,04,13,1.90
2015,03,06,04,14,1.90
2015,03,06,04,15,1.90
2015,03,06,04,16,1.90
2015,03,06,04,17,1.90
2015,03,06,04,18,2.00
2015,03,06,04,19,2.00
2015,03,06,04,20,2.00
2015,03,06,04,21,2.00
2015,03,06,04,22,2.10
2015,03,06,04,23,2.10
2015,03,06,04,24,2.10
2015,03,06,04,25,2.20
2015,03,06,04,26,2.20
2015,03,06,04,27,2.20
2015,03,06,04,28,2.20
2015,03,06,04,29,2.20
2015,03,06,04,30,2.30
2015,03,06,04,31,2.30
2015,03,06,04,32,2.30
2015,03,06,04,33,2.30
2015,03,06,04,34,2.30
2015,03,06,04,35,2.30
2015,03,06,04,36,2.40
2015,03,06,04,37,2.40
2015,03,06,04,38,2.40
2015,03,06,04,39,2.40
2015,03,06,04,40,2.40
2015,03,06,04,41,2.40
2015,03,06,04,42,2.50
2015,03,06,04,43,2.50
2015,03,06,04,44,2.50
2015,03,06,04,45,2.50
2015,03,06,04,46,2.50
2015,03,06,04,47,2.50
2015,03,06,04,48,2.60
2015,03,06,04,49,2.60
2015,03,06,04,50,2.60
2015,03,06,04,51,2.60
2015,03,06,04,52,2.60
2015,03,06,04,53,2.60
2015,03,06,04,54,2.60
2015,03,06,04,55,2.60
2015,03,06,04,56,2.60
2015,03,06,04,57,2.60
2015,03,06,04,58,2.60
2015,03,06,04,59,2.50
2015,03,06,05,00,2.50
2015,03,06,05,01,2.50
2015,03,06,05,02,2.50
2015,03,06,05,03,2.50
2015,03,06,05,04,2.40
2015,03,06,05,05,2.40
2015,03,06,05,06,2.40
2015,03,06,05,07,2.40
2015,03,06,05,08,2.40
2015,03,06,05,09,2.40
2015,03,06,05,10,2.40
2015,03,06,05,11,2.40
2015,03,06,05,12,2.40
2015,03,06,05,13,2.40
2015,03,06,05,14,2.40
2015,03,06,05,15,2.40
2015,03,06,05,16,2.40
2015,03,06,05,17,2.40
2015,03,06,05,18,2.40
2015,03,06,05,19,2.40
2015,03,06,05,20,2.30
2015,03,06,05,21,2.30
2015,03,06,05,22,2.30
2015,03,06,05,23,2.30
2015,03,06,05,24,2.30
2015,03,06,05,25,2.30
2015,03,06,05,26,2.30
2015,03,06,05,27,2.30
2015,03,06,05,28,2.30
2015,03,06,05,29,2.30
2015,03,06,05,30,2.30
2015,03,06,05,31,2.30
2015,03,06,05,32,2.30
2015,03,06,05,33,2.30
2015,03,06,05,34,2.30
2015,03,06,05,35,2.30
2015,03,06,05,36,2.30
2015,03,06,05,37,2.30
2015,03,06,05,38,2.30
2015,03,06,05,39,2.30
2015,03,06,05,40,2.30
2015,03,06,05,41,2.30
2015,03,06,05,42,2.30
2015,03,06,05,43,2.30
2015,03,06,05,44,2.30
2015,03,06,05,45,2.20
2015,03,06,05,46,2.30
2015,03,06,05,47,2.30
2015,03,06,05,48,2.20
2015,03,06,05,49,2.20
2015,03,06,05,50,2.20
2015,03,06,05,51,2.20
2015,03,06,05,52,2.20
2015,03,06,05,53,2.20
2015,03,06,05,54,2.20
2015,03,06,05,55,2.30
2015,03,06,05,56,2.30
2015,03,06,05,57,2.30
2015,03,06,05,58,2.30
2015,03,06,05,59,2.30
2015,03,06,06,00,2.30
2015,03,06,06,01,2.30
2015,03,06,06,02,2.30
2015,03,06,06,03,2.30
2015,03,06,06,04,2.30
2015,03,06,06,05,2.30
2015,03,06,06,06,2.30
2015,03,06,06,07,2.30
2015,03,06,06,08,2.30
2015,03,06,06,09,2.40
2015,03,06,06,10,2.40
2015,03,06,06,11,2.40
2015,03,06,06,12,2.40
2015,03,06,06,13,2.40
2015,03,06,06,14,2.40
2015,03,06,06,15,2.40
2015,03,06,06,16,2.40
2015,03,06,06,17,2.40
2015,03,06,06,18,2.40
2015,03,06,06,19,2.40
2015,03,06,06,20,2.40
2015,03,06,06,21,2.30
2015,03,06,06,22,2.40
2015,03,06,06,23,2.30
2015,03,06,06,24,2.30
2015,03,06,06,25,2.30
2015,03,06,06,26,2.30
2015,03,06,06,27,2.30
2015,03,06,06,28,2.30
2015,03,06,06,29,2.30
2015,03,06,06,30,2.30
2015,03,06,06,31,2.30
2015,03,06,06,32,2.30
2015,03,06,06,33,2.30
2015,03,06,06,34,2.30
2015,03,06,06,35,2.30
2015,03,06,06,36,2.20
2015,03,06,06,37,2.20
2015,03,06,06,38,2.20
2015,03,06,06,39,2.20
2015,03,06,06,40,2.20
2015,03,06,06,41,2.20
2015,03,06,06,42,2.20
2015,03,06,06,43,2.20
2015,03,06,06,44,2.20
2015,03,06,06,45,2.20
2015,03,06,06,46,2.20
2015,03,06,06,47,2.20
2015,03,06,06,48,2.20
2015,03,06,06,49,2.20
2015,03,06,06,50,2.20
2015,03,06,06,51,2.20
2015,03,06,06,52,2.20
2015,03,06,06,53,2.20
2015,03,06,06,54,2.20
2015,03,06,06,55,2.20
2015,03,06,06,56,2.20
2015,03,06,06,57,2.20
2015,03,06,06,58,2.20
2015,03,06,06,59,2.20
2015,03,06,07,00,2.20
2015,03,06,07,01,2.20
2015,03,06,07,02,2.20
2015,03,06,07,03,2.20
2015,03,06,07,04,2.20
2015,03,06,07,05,2.20
2015,03,06,07,06,2.20
2015,03,06,07,07,2.20
2015,03,06,07,08,2.20
2015,03,06,07,09,2.20
2015,03,06,07,10,2.20
2015,03,06,07,11,2.20
2015,03,06,07,12,2.20
2015,03,06,07,13,2.30
2015,03,06,07,14,2.30
2015,03,06,07,15,2.30
2015,03,06,07,16,2.30
2015,03,06,07,17,2.30
2015,03,06,07,18,2.30
2015,03,06,07,19,2.30
2015,03,06,07,20,2.30
2015,03,06,07,21,2.30
2015,03,06,07,22,2.30
2015,03,06,07,23,2.40
2015,03,06,07,24,2.40
2015,03,06,07,25,2.40
2015,03,06,07,26,2.40
2015,03,06,07,27,2.40
2015,03,06,07,28,2.40
2015,03,06,07,29,2.40
2015,03,06,07,30,2.50
2015,03,06,07,31,2.50
2015,03,06,07,32,2.50
2015,03,06,07,33,2.50
2015,03,06,07,34,2.50
2015,03,06,07,35,2.60
2015,03,06,07,36,2.60
2015,03,06,07,37,2.60
2015,03,06,07,38,2.60
2015,03,06,07,39,2.60
2015,03,06,07,40,2.60
2015,03,06,07,41,2.70
2015,03,06,07,42,2.70
2015,03,06,07,43,2.70
2015,03,06,07,44,2.70
2015,03,06,07,45,2.70
2015,03,06,07,46,2.70
2015,03,06,07,47,2.70
2015,03,06,07,48,2.80
2015,03,06,07,49,2.80
2015,03,06,07,50,2.80
2015,03,06,07,51,2.80
2015,03,06,07,52,2.80
2015,03,06,07,53,2.80
2015,03,06,07,54,2.80
2015,03,06,07,55,2.80
2015,03,06,07,56,2.80
2015,03,06,07,57,2.80
2015,03,06,07,58,2.80
2015,03,06,07,59,2.80
2015,03,06,08,00,2.80
2015,03,06,08,01,2.80
2015,03,06,08,02,2.80
2015,03,06,08,03,2.80
2015,03,06,08,04,2.80
2015,03,06,08,05,2.80
2015,03,06,08,06,2.80
2015,03,06,08,07,2.80
2015,03,06,08,08,2.90
2015,03,06,08,09,2.90
2015,03,06,08,10,2.90
2015,03,06,08,11,2.90
2015,03,06,08,12,3.00
2015,03,06,08,13,3.00
2015,03,06,08,14,3.00
2015,03,06,08,15,3.00
2015,03,06,08,16,3.10
2015,03,06,08,17,3.10
2015,03,06,08,18,3.10
2015,03,06,08,19,3.20
2015,03,06,08,20,3.20
2015,03,06,08,21,3.20
2015,03,06,08,22,3.20
2015,03,06,08,23,3.30
2015,03,06,08,24,3.30
2015,03,06,08,25,3.30
2015,03,06,08,26,3.30
2015,03,06,08,27,3.30
2015,03,06,08,28,3.40
2015,03,06,08,29,3.40
2015,03,06,08,30,3.40
2015,03,06,08,31,3.40
2015,03,06,08,32,3.40
2015,03,06,08,33,3.40
2015,03,06,08,34,3.40
2015,03,06,08,35,3.50
2015,03,06,08,36,3.50
2015,03,06,08,37,3.50
2015,03,06,08,38,3.50
2015,03,06,08,39,3.50
2015,03,06,08,40,3.60
2015,03,06,08,41,3.60
2015,03,06,08,42,3.60
2015,03,06,08,43,3.60
2015,03,06,08,44,3.60
2015,03,06,08,45,3.60
2015,03,06,08,46,3.60
2015,03,06,08,47,3.60
2015,03,06,08,48,3.60
2015,03,06,08,49,3.60
2015,03,06,08,50,3.60
2015,03,06,08,51,3.60
2015,03,06,08,52,3.60
2015,03,06,08,53,3.60
2015,03,06,08,54,3.70
2015,03,06,08,55,3.60
2015,03,06,08,56,3.70
2015,03,06,08,57,3.70
2015,03,06,08,58,3.70
2015,03,06,08,59,3.70
2015,03,06,09,00,3.70
2015,03,06,09,01,3.70
2015,03,06,09,02,3.80
2015,03,06,09,03,3.80
2015,03,06,09,04,3.80
2015,03,06,09,05,3.90
2015,03,06,09,06,3.90
2015,03,06,09,07,4.00
2015,03,06,09,08,4.00
2015,03,06,09,09,4.00
2015,03,06,09,10,4.00
2015,03,06,09,11,4.00
2015,03,06,09,12,4.00
2015,03,06,09,13,4.00
2015,03,06,09,14,4.10
2015,03,06,09,15,4.10
2015,03,06,09,16,4.10
2015,03,06,09,17,4.10
2015,03,06,09,18,4.10
2015,03,06,09,19,4.20
2015,03,06,09,20,4.10
2015,03,06,09,21,4.10
2015,03,06,09,22,4.20
2015,03,06,09,23,4.20
2015,03,06,09,24,4.20
2015,03,06,09,25,4.20
2015,03,06,09,26,4.20
2015,03,06,09,27,4.30
2015,03,06,09,28,4.30
2015,03,06,09,29,4.30
2015,03,06,09,30,4.30
2015,03,06,09,31,4.30
2015,03,06,09,32,4.40
2015,03,06,09,33,4.40
2015,03,06,09,34,4.50
2015,03,06,09,35,4.50
2015,03,06,09,36,4.50
2015,03,06,09,37,4.50
2015,03,06,09,38,4.60
2015,03,06,09,39,4.50
2015,03,06,09,40,4.50
2015,03,06,09,41,4.50
2015,03,06,09,42,4.50
2015,03,06,09,43,4.60
2015,03,06,09,44,4.60
2015,03,06,09,45,4.60
2015,03,06,09,46,4.60
2015,03,06,09,47,4.70
2015,03,06,09,48,4.70
2015,03,06,09,49,4.70
2015,03,06,09,50,4.70
2015,03,06,09,51,4.70
2015,03,06,09,52,4.80
2015,03,06,09,53,4.80
2015,03,06,09,54,4.80
2015,03,06,09,55,4.80
2015,03,06,09,56,4.80
2015,03,06,09,57,4.90
2015,03,06,09,58,4.90
2015,03,06,09,59,4.90
2015,03,06,10,00,4.90
2015,03,06,10,01,5.00
2015,03,06,10,02,5.00
2015,03,06,10,03,5.10
2015,03,06,10,04,5.10
2015,03,06,10,05,5.10
2015,03,06,10,06,5.10
2015,03,06,10,07,5.20
2015,03,06,10,08,5.20
2015,03,06,10,09,5.30
2015,03,06,10,10,5.30
2015,03,06,10,11,5.30
2015,03,06,10,12,5.40
2015,03,06,10,13,5.60
2015,03,06,10,14,5.70
2015,03,06,10,15,5.70
2015,03,06,10,16,5.70
2015,03,06,10,17,5.80
2015,03,06,10,18,5.80
2015,03,06,10,19,5.80
2015,03,06,10,20,5.80
2015,03,06,10,21,5.90
2015,03,06,10,22,5.90
2015,03,06,10,23,5.90
2015,03,06,10,24,6.00
2015,03,06,10,25,6.00
2015,03,06,10,26,6.10
2015,03,06,10,27,6.10
2015,03,06,10,28,6.20
2015,03,06,10,29,6.20
2015,03,06,10,30,6.20
2015,03,06,10,31,6.30
2015,03,06,10,32,6.30
2015,03,06,10,33,6.40
2015,03,06,10,34,6.40
2015,03,06,10,35,6.40
2015,03,06,10,36,6.40
2015,03,06,10,37,6.50
2015,03,06,10,38,6.50
2015,03,06,10,39,6.50
2015,03,06,10,40,6.50
2015,03,06,10,41,6.60
2015,03,06,10,42,6.60
2015,03,06,10,43,6.60
2015,03,06,10,44,6.60
2015,03,06,10,45,6.70
2015,03,06,10,46,6.80
2015,03,06,10,47,6.90
2015,03,06,10,48,6.90
2015,03,06,10,49,7.00
2015,03,06,10,50,7.00
2015,03,06,10,51,7.10
2015,03,06,10,52,7.10
2015,03,06,10,53,7.20
2015,03,06,10,54,7.20
2015,03,06,10,55,7.20
2015,03,06,10,56,7.20
2015,03,06,10,57,7.20
2015,03,06,10,58,7.30
2015,03,06,10,59,7.30
2015,03,06,11,00,7.30
2015,03,06,11,01,7.40
2015,03,06,11,02,7.40
2015,03,06,11,03,7.50
2015,03,06,11,04,7.50
2015,03,06,11,05,7.50
2015,03,06,11,06,7.50
2015,03,06,11,07,7.60
2015,03,06,11,08,7.70
2015,03,06,11,09,7.70
2015,03,06,11,10,7.80
2015,03,06,11,11,7.80
2015,03,06,11,12,7.90
2015,03,06,11,13,7.90
2015,03,06,11,14,8.00
2015,03,06,11,15,8.10
2015,03,06,11,16,8.10
2015,03,06,11,17,8.20
2015,03,06,11,18,8.20
2015,03,06,11,19,8.30
2015,03,06,11,20,8.30
2015,03,06,11,21,8.30
2015,03,06,11,22,8.40
2015,03,06,11,23,8.50
2015,03,06,11,24,8.50
2015,03,06,11,25,8.50
2015,03,06,11,26,8.50
2015,03,06,11,27,8.60
2015,03,06,11,28,8.60
2015,03,06,11,29,8.60
2015,03,06,11,30,8.60
2015,03,06,11,31,8.70
2015,03,06,11,32,8.80
2015,03,06,11,33,8.80
2015,03,06,11,34,8.80
2015,03,06,11,35,8.80
2015,03,06,11,36,8.80
2015,03,06,11,37,8.80
2015,03,06,11,38,8.90
2015,03,06,11,39,8.90
2015,03,06,11,40,9.00
2015,03,06,11,41,9.10
2015,03,06,11,42,9.10
2015,03,06,11,43,9.20
2015,03,06,11,44,9.20
2015,03,06,11,45,9.30
2015,03,06,11,46,9.30
2015,03,06,11,47,9.30
2015,03,06,11,48,9.30
2015,03,06,11,49,9.30
2015,03,06,11,50,9.40
2015,03,06,11,51,9.40
2015,03,06,11,52,9.50
2015,03,06,11,53,9.60
2015,03,06,11,54,9.70
2015,03,06,11,55,9.70
2015,03,06,11,56,9.80
2015,03,06,11,57,9.90
2015,03,06,11,58,9.90
2015,03,06,11,59,10.00
2015,03,06,12,00,10.10
2015,03,06,12,01,10.10
2015,03,06,12,02,10.20
2015,03,06,12,03,10.20
2015,03,06,12,04,10.20
2015,03,06,12,05,10.30
2015,03,06,12,06,10.30
2015,03,06,12,07,10.40
2015,03,06,12,08,10.40
2015,03,06,12,09,10.40
2015,03,06,12,10,10.40
2015,03,06,12,11,10.40
2015,03,06,12,12,10.40
2015,03,06,12,13,10.40
2015,03,06,12,14,10.40
2015,03,06,12,15,10.40
2015,03,06,12,16,10.50
2015,03,06,12,17,10.60
2015,03,06,12,18,10.60
2015,03,06,12,19,10.60
2015,03,06,12,20,10.70
2015,03,06,12,21,10.70
2015,03,06,12,22,10.80
2015,03,06,12,23,10.80
2015,03,06,12,24,10.80
2015,03,06,12,25,10.90
2015,03,06,12,26,10.90
2015,03,06,12,27,10.90
2015,03,06,12,28,11.00
2015,03,06,12,29,11.00
2015,03,06,12,30,11.10
2015,03,06,12,31,11.20
2015,03,06,12,32,11.30
2015,03,06,12,33,11.30
2015,03,06,12,34,11.50
2015,03,06,12,35,11.60
2015,03,06,12,36,11.70
2015,03,06,12,37,11.70
2015,03,06,12,38,11.80
2015,03,06,12,39,11.80
2015,03,06,12,40,11.80
2015,03,06,12,41,11.80
2015,03,06,12,42,11.90
2015,03,06,12,43,11.90
2015,03,06,12,44,11.90
2015,03,06,12,45,12.00
2015,03,06,12,46,12.00
2015,03,06,12,47,12.10
2015,03,06,12,48,12.10
2015,03,06,12,49,12.10
2015,03,06,12,50,12.10
2015,03,06,12,51,12.00
2015,03,06,12,52,12.00
2015,03,06,12,53,11.90
2015,03,06,12,54,11.90
2015,03,06,12,55,11.90
2015,03,06,12,56,12.00
2015,03,06,12,57,12.00
2015,03,06,12,58,12.10
2015,03,06,12,59,12.10
2015,03,06,13,00,12.10
2015,03,06,13,01,12.10
2015,03,06,13,02,12.20
2015,03,06,13,03,12.20
2015,03,06,13,04,12.20
2015,03,06,13,05,12.30
2015,03,06,13,06,12.30
2015,03,06,13,07,12.30
2015,03,06,13,08,12.40
2015,03,06,13,09,12.40
2015,03,06,13,10,12.40
2015,03,06,13,11,12.40
2015,03,06,13,12,12.40
2015,03,06,13,13,12.40
2015,03,06,13,14,12.40
2015,03,06,13,15,12.40
2015,03,06,13,16,12.40
2015,03,06,13,17,12.40
2015,03,06,13,18,12.50
2015,03,06,13,19,12.50
2015,03,06,13,20,12.60
2015,03,06,13,21,12.60
2015,03,06,13,22,12.70
2015,03,06,13,23,12.70
2015,03,06,13,24,12.70
2015,03,06,13,25,12.70
2015,03,06,13,26,12.70
2015,03,06,13,27,12.60
2015,03,06,13,28,12.60
2015,03,06,13,29,12.60
2015,03,06,13,30,12.70
2015,03,06,13,31,12.70
2015,03,06,13,32,12.80
2015,03,06,13,33,12.80
2015,03,06,13,34,12.90
2015,03,06,13,35,12.90
2015,03,06,13,36,13.00
2015,03,06,13,37,13.10
2015,03,06,13,38,13.20
2015,03,06,13,39,13.30
2015,03,06,13,40,13.40
2015,03,06,13,41,13.50
2015,03,06,13,42,13.50
2015,03,06,13,43,13.60
2015,03,06,13,44,13.70
2015,03,06,13,45,13.80
2015,03,06,13,46,13.80
2015,03,06,13,47,13.80
2015,03,06,13,48,13.80
2015,03,06,13,49,13.90
2015,03,06,13,50,13.90
2015,03,06,13,51,14.00
2015,03,06,13,52,14.10
2015,03,06,13,53,14.20
2015,03,06,13,54,14.20
2015,03,06,13,55,14.20
2015,03,06,13,56,14.20
2015,03,06,13,57,14.20
2015,03,06,13,58,14.10
2015,03,06,13,59,14.10
2015,03,06,14,00,14.10
2015,03,06,14,01,14.10
2015,03,06,14,02,14.10
2015,03,06,14,03,14.10
2015,03,06,14,04,14.10
2015,03,06,14,05,14.10
2015,03,06,14,06,14.10
2015,03,06,14,07,14.10
2015,03,06,14,08,14.20
2015,03,06,14,09,14.30
2015,03,06,14,10,14.40
2015,03,06,14,11,14.50
2015,03,06,14,12,14.50
2015,03,06,14,13,14.60
2015,03,06,14,14,14.70
2015,03,06,14,15,14.70
2015,03,06,14,16,14.70
2015,03,06,14,17,14.80
2015,03,06,14,18,14.80
2015,03,06,14,19,14.90
2015,03,06,14,20,14.90
2015,03,06,14,21,14.90
2015,03,06,14,22,14.80
2015,03,06,14,23,14.80
2015,03,06,14,24,14.80
2015,03,06,14,25,14.80
2015,03,06,14,26,14.80
2015,03,06,14,27,14.90
2015,03,06,14,28,14.90
2015,03,06,14,29,14.90
2015,03,06,14,30,15.00
2015,03,06,14,31,15.00
2015,03,06,14,32,15.10
2015,03,06,14,33,15.10
2015,03,06,14,34,15.10
2015,03,06,14,35,15.10
2015,03,06,14,36,15.10
2015,03,06,14,37,15.00
2015,03,06,14,38,14.90
2015,03,06,14,39,14.90
2015,03,06,14,40,14.90
2015,03,06,14,41,14.90
2015,03,06,14,42,14.90
2015,03,06,14,43,14.90
2015,03,06,14,44,14.90
2015,03,06,14,45,14.90
2015,03,06,14,46,14.90
2015,03,06,14,47,14.80
2015,03,06,14,48,14.80
2015,03,06,14,49,14.70
2015,03,06,14,50,14.60
2015,03,06,14,51,14.60
2015,03,06,14,52,14.60
2015,03,06,14,53,14.60
2015,03,06,14,54,14.60
2015,03,06,14,55,14.60
2015,03,06,14,56,14.60
2015,03,06,14,57,14.60
2015,03,06,14,58,14.70
2015,03,06,14,59,14.70
2015,03,06,15,00,14.80
2015,03,06,15,01,14.80
2015,03,06,15,02,14.80
2015,03,06,15,03,14.80
2015,03,06,15,04,14.80
2015,03,06,15,05,14.80
2015,03,06,15,06,14.80
2015,03,06,15,07,14.80
2015,03,06,15,08,14.80
2015,03,06,15,09,14.90
2015,03,06,15,10,14.90
2015,03,06,15,11,14.90
2015,03,06,15,12,14.90
2015,03,06,15,13,14.90
2015,03,06,15,14,14.90
2015,03,06,15,15,15.00
2015,03,06,15,16,15.00
2015,03,06,15,17,15.00
2015,03,06,15,18,15.10
2015,03,06,15,19,15.10
2015,03,06,15,20,15.10
2015,03,06,15,21,15.20
2015,03,06,15,22,15.20
2015,03,06,15,23,15.30
2015,03,06,15,24,15.40
2015,03,06,15,25,15.50
2015,03,06,15,26,15.50
2015,03,06,15,27,15.60
2015,03,06,15,28,15.60
2015,03,06,15,29,15.60
2015,03,06,15,30,15.60
2015,03,06,15,31,15.50
2015,03,06,15,32,15.50
2015,03,06,15,33,15.50
2015,03,06,15,34,15.50
2015,03,06,15,35,15.50
2015,03,06,15,36,15.40
2015,03,06,15,37,15.40
2015,03,06,15,38,15.40
2015,03,06,15,39,15.40
2015,03,06,15,40,15.40
2015,03,06,15,41,15.30
2015,03,06,15,42,15.30
2015,03,06,15,43,15.30
2015,03,06,15,44,15.30
2015,03,06,15,45,15.30
2015,03,06,15,46,15.20
2015,03,06,15,47,15.20
2015,03,06,15,48,15.20
2015,03,06,15,49,15.20
2015,03,06,15,50,15.20
2015,03,06,15,51,15.20
2015,03,06,15,52,15.20
2015,03,06,15,53,15.20
2015,03,06,15,54,15.20
2015,03,06,15,55,15.20
2015,03,06,15,56,15.20
2015,03,06,15,57,15.20
2015,03,06,15,58,15.20
2015,03,06,15,59,15.20
2015,03,06,16,00,15.10
2015,03,06,16,01,15.10
2015,03,06,16,02,15.10
2015,03,06,16,03,15.00
2015,03,06,16,04,15.00
2015,03,06,16,05,14.90
2015,03,06,16,06,14.80
2015,03,06,16,07,14.80
2015,03,06,16,08,14.80
2015,03,06,16,09,14.70
2015,03,06,16,10,14.70
2015,03,06,16,11,14.70
2015,03,06,16,12,14.70
2015,03,06,16,13,14.70
2015,03,06,16,14,14.70
2015,03,06,16,15,14.70
2015,03,06,16,16,14.70
2015,03,06,16,17,14.70
2015,03,06,16,18,14.60
2015,03,06,16,19,14.60
2015,03,06,16,20,14.60
2015,03,06,16,21,14.60
2015,03,06,16,22,14.60
2015,03,06,16,23,14.60
2015,03,06,16,24,14.50
2015,03,06,16,25,14.50
2015,03,06,16,26,14.50
2015,03,06,16,27,14.40
2015,03,06,16,28,14.40
2015,03,06,16,29,14.40
2015,03,06,16,30,14.40
2015,03,06,16,31,14.40
2015,03,06,16,32,14.30
2015,03,06,16,33,14.30
2015,03,06,16,34,14.30
2015,03,06,16,35,14.30
2015,03,06,16,36,14.30
2015,03,06,16,37,14.30
2015,03,06,16,38,14.30
2015,03,06,16,39,14.30
2015,03,06,16,40,14.20
2015,03,06,16,41,14.10
2015,03,06,16,42,14.00
2015,03,06,16,43,13.90
2015,03,06,16,44,13.90
2015,03,06,16,45,13.90
2015,03,06,16,46,13.80
2015,03,06,16,47,13.80
2015,03,06,16,48,13.80
2015,03,06,16,49,13.80
2015,03,06,16,50,13.80
2015,03,06,16,51,13.80
2015,03,06,16,52,13.70
2015,03,06,16,53,13.70
2015,03,06,16,54,13.70
2015,03,06,16,55,13.70
2015,03,06,16,56,13.70
2015,03,06,16,57,13.60
2015,03,06,16,58,13.60
2015,03,06,16,59,13.60
2015,03,06,17,00,13.60
2015,03,06,17,01,13.50
2015,03,06,17,02,13.50
2015,03,06,17,03,13.40
2015,03,06,17,04,13.40
2015,03,06,17,05,13.40
2015,03,06,17,06,13.40
2015,03,06,17,07,13.30
2015,03,06,17,08,13.30
2015,03,06,17,09,13.30
2015,03,06,17,10,13.30
2015,03,06,17,11,13.30
2015,03,06,17,12,13.30
2015,03,06,17,13,13.20
2015,03,06,17,14,13.20
2015,03,06,17,15,13.20
2015,03,06,17,16,13.20
2015,03,06,17,17,13.20
2015,03,06,17,18,13.10
2015,03,06,17,19,13.10
2015,03,06,17,20,13.10
2015,03,06,17,21,13.10
2015,03,06,17,22,13.00
2015,03,06,17,23,13.00
2015,03,06,17,24,13.00
2015,03,06,17,25,12.90
2015,03,06,17,26,12.90
2015,03,06,17,27,12.90
2015,03,06,17,28,12.90
2015,03,06,17,29,12.80
2015,03,06,17,30,12.80
2015,03,06,17,31,12.80
2015,03,06,17,32,12.80
2015,03,06,17,33,12.80
2015,03,06,17,34,12.80
2015,03,06,17,35,12.70
2015,03,06,17,36,12.70
2015,03,06,17,37,12.70
2015,03,06,17,38,12.70
2015,03,06,17,39,12.70
2015,03,06,17,40,12.70
2015,03,06,17,41,12.70
2015,03,06,17,42,12.70
2015,03,06,17,43,12.70
2015,03,06,17,44,12.60
2015,03,06,17,45,12.60
2015,03,06,17,46,12.60
2015,03,06,17,47,12.60
2015,03,06,17,48,12.60
2015,03,06,17,49,12.60
2015,03,06,17,50,12.60